DW7488 Weather Reports


Display with metric or nautical units.
time (UTC)temp
F
wind
direction
speed
MPH
gust
MPH
rain 1hr
in
rain 24hr
in
rain mn
in
humidity
%
barometer
mb
20191016120125 72 128 0.0 1.0 0.00 0.00 0.00 93 1014.8
20191016114549 72 128 0.0 1.0 0.00 0.00 0.00 93 1014.8
20191016113045 72 128 0.0 1.0 0.00 0.00 0.00 92 1014.7
20191016111537 71 128 0.0 1.0 0.00 0.00 0.00 92 1014.6
20191016110103 71 128 0.0 1.0 0.00 0.00 0.00 92 1014.6
20191016104556 71 128 0.0 0.0 0.00 0.00 0.00 92 1014.6
20191016103055 71 128 0.0 0.0 0.00 0.00 0.00 92 1014.5
20191016101609 71 128 0.0 0.0 0.00 0.00 0.00 92 1014.4
20191016100052 71 128 0.0 0.0 0.00 0.00 0.00 91 1014.3
20191016094533 71 128 0.0 1.0 0.00 0.00 0.00 91 1014.3
20191016093040 71 128 0.0 0.0 0.00 0.00 0.00 91 1014.3
20191016091526 71 128 0.0 0.0 0.00 0.00 0.00 91 1014.2
20191016090023 72 128 0.0 1.0 0.00 0.00 0.00 91 1014.2
20191016084557 72 128 0.0 1.0 0.00 0.00 0.00 91 1014.1
20191016083055 72 128 0.0 2.0 0.00 0.00 0.00 91 1014.2
20191016081522 72 128 0.0 1.0 0.00 0.00 0.00 91 1014.2
20191016080028 72 128 0.0 1.0 0.00 0.00 0.00 91 1014.2
20191016074525 72 128 0.0 1.0 0.00 0.00 0.00 91 1014.3
20191016073021 72 128 0.0 1.0 0.00 0.00 0.00 90 1014.6
20191016071521 72 128 0.0 1.0 0.00 0.00 0.00 90 1014.6
20191016070015 72 128 0.0 1.0 0.00 0.00 0.00 90 1014.8
20191016064518 72 128 0.0 1.0 0.00 0.00 0.00 90 1015.0
20191016063006 72 128 0.0 0.0 0.00 0.00 0.00 89 1015.1
20191016061515 73 128 0.0 0.0 0.00 0.00 0.00 88 1015.1
20191016060002 73 128 0.0 1.0 0.00 0.00 0.00 88 1015.2
20191016053125 74 128 0.0 1.0 0.00 0.00 0.00 87 1015.1
20191016051753 74 128 0.0 2.0 0.00 0.00 0.00 87 1015.1
20191016050145 74 128 0.0 2.0 0.00 0.00 0.00 86 1015.3
20191016044652 74 128 0.0 0.0 0.00 0.00 0.00 86 1015.4
20191016043156 74 128 0.0 0.0 0.00 0.00 0.00 86 1015.5
20191016041632 75 128 0.0 1.0 0.00 0.00 0.00 85 1015.5
20191016040338 75 128 0.0 1.0 0.00 0.00 0.00 83 1015.6
20191016034612 75 128 0.0 0.0 0.00 0.00 0.00 82 1015.7
20191016033227 76 128 0.0 2.0 0.00 0.00 0.00 81 1015.8
20191016031639 76 128 0.0 3.0 0.00 0.00 0.00 80 1015.7
20191016030130 77 113 1.0 4.0 0.00 0.00 0.00 80 1015.6
20191016024650 77 82 1.0 5.0 0.00 0.00 0.00 80 1015.7
20191016023224 77 120 1.0 4.0 0.00 0.00 0.00 80 1016.0
20191016021617 77 118 2.0 4.0 0.00 0.00 0.00 80 1016.1
20191016020210 77 135 2.0 4.0 0.00 0.00 0.00 79 1016.1
20191016014638 77 111 1.0 4.0 0.00 0.00 0.00 78 1016.1
20191016013205 77 99 1.0 3.0 0.00 0.00 0.00 78 1016.3
20191016011613 78 94 1.0 3.0 0.00 0.00 0.00 77 1016.2
20191016010057 78 115 1.0 3.0 0.00 0.00 0.00 77 1016.1
20191016004600 78 105 2.0 4.0 0.00 0.00 0.00 76 1016.0
20191016003114 79 129 1.0 7.0 0.00 0.00 0.00 75 1016.0
20191016001645 79 117 1.0 6.0 0.00 0.00 0.00 75 1015.7
20191016000114 79 109 1.0 7.0 0.00 0.00 0.00 75 1015.5
20191015234618 79 115 4.0 7.0 0.00 0.00 0.00 75 1015.4
20191015233127 79 92 2.0 7.0 0.00 0.00 0.00 75 1015.3
20191015231548 79 96 1.0 5.0 0.00 0.00 0.00 75 1015.4
20191015230125 80 91 3.0 7.0 0.00 0.00 0.00 75 1015.2
20191015224648 80 114 4.0 10.0 0.00 0.00 0.00 74 1015.0
20191015223139 81 93 4.0 9.0 0.00 0.00 0.00 73 1014.9
20191015221546 81 114 2.0 9.0 0.00 0.00 0.00 72 1014.9
20191015220115 82 127 4.0 12.0 0.00 0.00 0.00 71 1014.8
20191015214543 82 85 4.0 11.0 0.00 0.00 0.00 70 1014.9
20191015213106 83 124 3.0 9.0 0.00 0.00 0.00 70 1015.2
20191015211549 83 103 3.0 10.0 0.00 0.00 0.00 69 1015.2
20191015210056 85 152 2.0 9.0 0.00 0.00 0.00 67 1015.3
20191015204546 86 115 3.0 10.0 0.00 0.00 0.00 66 1015.2
20191015203058 86 69 4.0 10.0 0.00 0.00 0.00 64 1015.1
20191015201633 88 125 2.0 8.0 0.00 0.00 0.00 63 1015.2
20191015200059 87 108 3.0 8.0 0.00 0.00 0.00 62 1015.3
20191015194541 87 86 3.0 9.0 0.00 0.00 0.00 63 1015.4
20191015193105 86 106 4.0 11.0 0.00 0.00 0.00 63 1015.4
20191015191537 87 137 3.0 9.0 0.00 0.00 0.00 62 1015.5
20191015190059 87 121 3.0 9.0 0.00 0.00 0.00 61 1015.6
20191015184535 88 55 3.0 7.0 0.00 0.00 0.00 58 1015.8
20191015183055 89 65 3.0 7.0 0.00 0.00 0.00 58 1016.0
20191015181534 88 117 4.0 9.0 0.00 0.00 0.00 57 1016.3
20191015180014 87 52 3.0 9.0 0.00 0.00 0.00 59 1016.6
20191015174522 86 120 4.0 9.0 0.00 0.00 0.00 59 1016.7
20191015173018 86 117 3.0 10.0 0.00 0.00 0.00 60 1017.0
20191015171506 87 78 2.0 7.0 0.00 0.00 0.00 56 1017.1
20191015170004 86 86 3.0 10.0 0.00 0.00 0.00 60 1017.3
20191015164513 86 161 2.0 10.0 0.00 0.00 0.00 56 1017.7
20191015163206 87 143 3.0 9.0 0.00 0.00 0.00 59 1017.9
20191015161716 86 119 4.0 8.0 0.00 0.00 0.00 57 1018.1
20191015160237 87 14 3.0 8.0 0.00 0.00 0.00 60 1018.2
20191015154643 86 123 3.0 10.0 0.00 0.00 0.00 59 1018.1
20191015153217 85 149 3.0 10.0 0.00 0.00 0.00 62 1018.2
20191015151634 84 90 4.0 9.0 0.00 0.00 0.00 62 1018.3
20191015150143 86 84 3.0 7.0 0.00 0.00 0.00 62 1018.3
20191015144623 86 78 3.0 12.0 0.00 0.00 0.00 62 1018.2
20191015143113 84 64 2.0 6.0 0.00 0.00 0.00 65 1018.4
20191015141711 83 129 2.0 8.0 0.00 0.00 0.00 66 1018.5
20191015140056 82 87 3.0 6.0 0.00 0.00 0.00 67 1018.4
20191015134601 81 117 2.0 5.0 0.00 0.00 0.00 70 1018.2
20191015133130 80 92 1.0 6.0 0.00 0.00 0.00 74 1018.2
20191015131634 78 89 1.0 3.0 0.00 0.00 0.00 80 1018.1
20191015130056 74 5 0.0 3.0 0.00 0.00 0.00 92 1017.8
20191015124544 73 5 0.0 2.0 0.00 0.00 0.00 94 1017.8
20191015123038 72 99 0.0 0.0 0.00 0.00 0.00 94 1017.7
20191015121558 71 99 0.0 1.0 0.00 0.00 0.00 94 1017.6